Wind_Speed
2 2 3 4 4 4 4 5 4 5 6 6 6 6 5 5 5 6 6 6 6 6 5 5 4 4 4 3 3 3 3 2 3 3 3 4 4 5 5 6 5 6 6 6 6 6 6 6 7
3 3 3 3 4 4 4 5 5 5 5 6 6 6 5 5 5 5 6 6 6 6 6 6 5 5 4 4 4 4 3 3 4 4 4 4 4 4 5 6 6 7 7 7 7 7 8 8 8
3 3 4 4 4 4 4 5 5 5 6 6 6 6 6 6 5 5 6 6 6 6 6 6 6 5 5 5 5 5 5 5 4 4 4 4 4 4 5 6 7 7 7 8 9 9 9 9 9
3 4 4 4 4 4 5 5 5 6 6 6 6 6 6 6 5 6 6 6 6 6 6 6 6 6 5 5 6 6 5 5 4 5 4 4 4 4 5 6 6 7 7 8 9 10 10 10 11
4 4 5 5 5 5 5 6 6 6 6 6 6 6 5 5 6 6 6 7 7 6 6 7 6 6 6 5 5 5 5 5 5 5 5 5 5 5 6 6 7 7 8 9 10 10 10 10 10
4 4 5 5 6 6 6 6 6 5 5 5 5 5 5 5 5 6 6 7 7 7 7 6 6 6 6 5 5 6 5 5 5 5 6 6 6 6 7 7 8 8 9 9 10 10 10 11 11
5 5 5 6 6 6 6 6 6 5 5 4 5 5 5 5 5 5 5 6 6 6 6 5 5 5 5 5 5 5 6 6 6 6 7 7 7 7 8 9 9 9 9 10 10 10 11 11 11
5 5 5 5 6 6 6 5 5 5 5 4 4 4 4 4 4 4 4 5 5 5 4 4 5 5 5 5 5 6 6 6 6 7 7 8 8 9 8 9 10 10 10 11 10 11 11 11 12
5 5 5 5 5 5 5 5 4 5 4 4 4 4 4 4 3 3 3 4 4 4 4 4 4 4 5 6 6 6 6 6 6 6 7 8 9 9 9 9 10 9 9 10 10 11 11 11 11
5 5 5 5 5 5 5 5 4 4 4 4 4 4 4 4 3 2 3 3 3 3 4 4 4 4 4 5 5 5 6 6 6 5 6 6 7 8 8 8 8 9 9 10 10 11 11 11 11
4 5 5 5 5 4 4 4 3 3 3 3 3 3 3 3 3 3 3 3 3 3 4 5 5 5 5 5 5 5 5 5 6 6 6 6 6 6 6 7 7 8 9 9 10 10 10 11 11
5 5 5 5 4 4 3 3 3 3 3 3 3 3 4 4 4 4 4 4 4 4 4 5 5 5 5 5 6 7 7 6 6 6 5 6 6 6 6 6 7 8 8 9 9 10 10 10 11
5 5 5 5 5 4 4 3 3 4 4 4 3 4 4 5 5 5 5 5 5 5 5 5 5 6 6 6 6 7 7 7 6 6 5 6 6 6 6 7 7 7 8 8 9 9 10 11 12
6 6 5 5 5 4 4 4 4 4 4 4 4 5 5 5 5 5 6 6 5 6 5 5 6 6 6 6 6 7 7 7 7 6 6 6 6 6 6 6 7 7 7 8 8 9 10 10 11
6 6 6 6 6 5 5 5 4 4 4 5 5 5 5 6 6 6 6 7 6 6 6 6 6 7 7 7 7 7 7 8 8 8 7 6 7 7 7 7 7 7 7 8 8 9 9 10 10
6 6 6 6 6 5 5 5 5 5 5 5 6 5 5 6 6 6 6 6 6 6 6 7 7 7 7 8 8 7 7 7 8 8 7 7 7 7 8 8 8 8 8 9 9 9 10 10 10
6 6 6 6 6 6 6 6 6 6 6 6 6 6 6 6 6 5 6 6 6 7 7 7 8 7 7 8 8 7 7 7 7 8 8 8 8 8 8 8 9 9 9 10 10 10 10 10 10
7 7 6 7 7 7 7 7 7 7 7 7 7 7 7 6 7 6 6 6 6 7 7 8 9 8 8 8 8 8 8 8 8 8 8 8 8 8 8 8 9 10 10 10 10 11 11 11 11
8 8 8 8 8 9 9 8 8 8 8 8 8 8 8 8 7 7 7 7 8 8 8 8 8 8 8 8 9 9 9 9 9 9 9 9 9 9 9 9 10 10 11 11 12 12 12 12 12
9 9 9 9 9 9 9 9 8 8 9 9 9 9 8 9 8 8 8 8 9 8 8 8 8 8 9 9 10 10 9 9 9 9 9 9 10 10 10 10 11 11 11 12 12 12 13 14 14
10 10 9 9 10 11 11 10 10 9 9 9 10 10 10 9 9 9 9 9 9 9 8 8 9 9 9 9 10 10 9 9 9 10 10 10 10 11 11 11 10 11 11 12 13 13 13 13 14
11 10 11 11 11 11 12 11 11 10 10 11 11 11 11 10 10 10 9 9 9 9 9 9 9 9 9 9 9 9 9 9 10 10 11 11 11 11 11 12 12 12 11 12 13 13 13 14 14
11 11 12 12 13 12 12 12 11 11 11 12 12 12 12 12 12 11 10 11 10 10 10 11 11 10 10 10 10 10 10 11 11 11 11 11 11 11 11 12 12 12 12 12 12 13 13 14 14
12 12 13 14 14 13 13 13 11 12 12 13 13 13 13 13 13 13 12 12 12 12 12 12 12 11 11 10 10 10 11 11 11 12 12 12 12 12 12 12 13 13 12 12 12 12 13 13 13
12 13 14 15 15 14 14 14 12 12 13 14 14 14 14 14 14 14 14 13 13 13 12 12 13 12 12 12 11 12 11 12 12 13 13 13 13 13 13 13 13 13 13 13 13 13 13 13 13
13 14 15 17 16 15 15 15 14 14 15 15 15 15 15 15 15 15 15 14 14 13 13 13 13 12 12 12 12 12 12 13 13 13 13 13 14 14 14 14 13 13 14 14 14 14 14 14 14
15 15 16 17 18 17 17 16 15 15 14 15 15 15 16 16 16 16 15 15 15 14 14 14 14 14 13 12 13 13 13 13 13 14 14 14 15 15 15 15 14 15 15 15 15 15 14 14 15
16 17 17 18 19 18 17 16 15 14 14 15 15 15 15 16 16 16 16 15 15 15 15 16 15 15 14 15 14 14 14 14 15 15 15 15 15 15 16 16 15 15 15 15 15 15 15 15 15
17 17 17 18 19 19 18 16 15 15 15 15 15 15 15 16 17 17 17 17 17 17 17 17 16 16 15 15 15 16 16 16 16 16 16 16 16 16 16 16 16 16 16 16 16 16 16 16 16
17 17 18 18 19 19 18 16 15 15 15 15 16 16 16 16 17 17 18 17 17 18 18 18 18 17 17 16 16 17 17 17 17 17 17 17 17 17 16 17 17 18 17 17 17 17 17 17 16
Wind_Direction
229 213 215 220 224 228 236 242 244 247 245 242 241 244 245 250 251 255 256 261 261 257 260 270 277 274 270 276 286 291 285 285 296 293 287 270 248 230 232 237 238 238 244 249 250 251 251 251 254
229 228 229 231 232 239 242 240 242 249 251 248 250 253 255 255 257 258 256 258 257 257 262 270 271 269 265 267 268 274 274 274 281 282 283 278 265 251 247 248 247 249 250 250 251 253 254 254 257
243 240 243 247 242 251 251 249 246 253 255 253 258 264 265 261 263 260 257 255 254 259 265 269 269 266 259 257 260 265 274 271 273 279 281 284 274 257 254 249 249 252 255 258 257 254 253 256 259
248 250 253 255 252 254 259 257 261 264 258 258 261 264 266 261 263 263 261 259 257 258 262 266 263 260 259 255 255 258 264 266 274 278 273 272 266 251 246 249 255 259 260 261 259 256 256 258 260
256 257 260 265 262 264 263 260 263 267 265 257 262 269 271 267 264 263 261 261 259 257 257 259 257 255 255 253 249 249 247 255 267 270 267 263 261 254 247 255 262 263 266 264 261 260 259 259 259
267 266 268 266 271 268 265 263 262 260 260 260 263 269 269 267 265 264 264 260 260 256 256 256 252 252 250 252 249 246 254 263 267 267 270 270 267 266 263 262 269 268 267 268 265 260 259 260 261
264 270 273 270 270 267 264 263 259 257 257 259 261 262 263 263 260 262 260 255 255 256 256 251 247 245 248 252 247 247 250 257 262 264 269 271 271 272 271 268 270 271 270 269 267 265 265 263 260
263 272 278 279 272 262 259 259 266 262 256 256 258 257 262 260 261 264 260 250 249 252 251 247 244 245 246 247 250 250 254 256 258 263 268 272 274 273 271 267 266 268 267 266 264 265 266 263 260
268 275 275 275 273 263 254 256 256 251 251 255 259 259 260 261 267 268 261 253 248 248 250 250 245 241 241 244 251 254 257 260 260 264 269 272 272 272 271 266 264 266 267 269 268 268 268 264 262
271 275 276 274 269 260 254 251 247 244 247 251 250 252 255 258 260 261 258 258 256 249 245 248 247 245 244 246 250 255 261 261 261 268 274 275 274 274 271 263 267 268 270 273 269 268 266 264 262
265 272 273 271 263 256 250 246 254 249 250 250 248 251 251 253 256 262 263 265 256 245 238 241 244 245 245 246 247 253 264 266 267 276 284 283 284 284 277 271 275 277 278 276 274 273 270 268 266
258 262 265 264 264 250 239 244 251 258 255 254 254 253 257 254 258 258 259 261 255 250 243 238 240 242 244 246 248 251 255 260 262 266 273 276 275 277 276 275 278 281 280 277 276 277 273 270 268
262 261 264 260 260 255 244 244 251 258 260 263 258 257 259 261 264 265 264 264 260 253 249 243 241 242 243 250 255 257 261 266 263 263 266 269 267 267 266 269 273 278 281 282 280 277 278 276 272
264 260 256 251 249 250 250 250 253 260 265 266 266 268 269 268 267 268 268 265 266 257 251 247 245 243 242 248 253 257 261 266 266 266 266 267 270 270 270 272 277 283 289 289 284 281 281 280 276
263 261 253 251 251 247 248 251 258 266 269 264 264 269 269 267 266 266 269 270 270 265 251 248 249 247 246 251 255 259 263 265 269 269 266 269 273 277 279 281 284 288 289 290 289 287 287 284 282
263 264 257 254 254 250 252 259 264 268 263 258 261 267 267 266 267 267 270 269 269 266 257 246 250 250 250 255 260 262 265 268 267 268 264 267 276 280 280 282 286 289 289 290 289 288 287 287 285
265 264 259 256 256 252 253 263 267 267 259 255 261 268 266 264 264 267 268 268 268 265 262 254 254 250 252 256 260 264 266 269 269 269 271 269 274 278 278 280 283 287 289 290 291 291 291 289 286
263 260 258 254 255 255 260 264 262 263 259 259 262 264 262 262 264 270 270 271 271 268 265 260 258 254 257 262 263 264 267 269 271 271 273 272 275 284 279 281 284 285 287 288 288 288 287 286 285
258 257 255 255 258 260 266 267 262 261 259 260 261 261 261 261 261 265 269 273 274 273 269 262 257 258 263 267 265 264 266 268 269 272 273 277 280 283 278 282 286 288 288 288 287 285 284 284 284
258 259 259 258 259 261 266 267 264 258 259 261 261 260 260 262 263 263 268 273 274 275 271 263 259 263 265 266 265 265 266 266 267 273 276 278 282 285 279 284 287 288 288 288 288 287 286 283 283
262 264 264 261 262 266 268 265 262 262 262 259 256 256 256 258 258 261 266 270 270 270 270 265 260 261 262 265 264 263 265 268 270 274 278 279 280 283 285 292 288 289 289 288 288 287 287 286 285
261 264 265 265 262 266 269 264 262 262 262 260 259 259 258 258 259 263 268 272 268 268 268 265 266 263 263 265 267 267 270 272 275 279 283 281 279 283 289 292 290 294 289 288 287 286 286 286 285
261 263 266 265 264 266 267 269 266 265 266 264 263 262 264 263 263 265 268 270 269 268 266 265 265 263 264 270 270 269 272 273 276 280 282 284 283 285 290 293 294 294 292 292 289 285 285 285 283
262 262 264 265 265 266 269 271 268 274 273 270 267 266 266 264 264 263 266 268 268 268 266 266 262 261 262 266 268 269 272 274 277 280 280 283 284 286 290 293 295 294 294 292 291 288 288 286 284
260 263 266 267 267 271 274 274 277 276 274 273 271 269 267 263 263 263 264 267 267 267 267 264 261 262 263 263 266 269 272 275 278 280 280 282 284 286 289 291 294 294 295 294 291 289 289 288 285
261 265 268 272 274 275 272 275 281 279 276 274 273 272 270 266 264 262 263 263 263 264 264 262 261 261 267 265 266 269 270 273 276 279 281 283 284 285 287 289 290 291 291 292 292 291 289 289 287
262 263 267 270 274 275 273 276 279 279 276 273 272 272 272 269 265 262 262 262 262 262 262 263 262 263 267 270 268 270 272 274 276 278 280 283 285 285 285 285 286 288 289 290 291 291 289 287 285
260 263 266 269 273 276 275 276 279 280 280 276 273 271 270 270 268 264 262 262 263 263 261 261 261 262 267 270 270 271 274 276 275 275 278 281 284 285 284 284 285 286 287 287 290 288 287 285 284
259 260 263 268 272 276 277 277 280 282 281 279 274 270 269 269 268 265 264 262 262 261 261 261 261 264 267 270 272 273 275 276 276 275 276 278 280 283 284 284 284 285 286 287 287 287 286 284 282
261 263 265 267 270 273 276 278 281 280 280 279 277 274 272 270 269 267 264 262 259 259 260 262 263 264 268 270 273 274 275 276 277 276 275 276 278 281 282 283 282 283 284 285 285 286 286 285 283
Height
5842 5842 5843 5845 5847 5847 5847 5848 5848 5848 5848 5849 5850 5850 5851 5852 5853 5856 5854 5853 5854 5854 5854 5854 5854 5854 5855 5854 5855 5855 5855 5855 5854 5854 5854 5854 5853 5854 5856 5857 5858 5859 5859 5860 5861 5861 5862 5862 5863
5842 5843 5844 5845 5845 5846 5847 5847 5847 5848 5848 5848 5849 5849 5850 5850 5851 5852 5852 5852 5852 5853 5853 5853 5853 5853 5853 5853 5854 5854 5854 5854 5854 5854 5854 5854 5853 5854 5855 5856 5857 5858 5858 5859 5860 5860 5861 5861 5861
5842 5843 5845 5845 5844 5845 5846 5846 5847 5847 5847 5848 5848 5848 5849 5849 5850 5850 5850 5851 5851 5851 5852 5852 5852 5852 5852 5852 5852 5853 5853 5853 5853 5853 5853 5853 5853 5854 5854 5855 5856 5856 5857 5857 5858 5859 5859 5860 5860
5842 5843 5844 5844 5844 5844 5845 5846 5846 5846 5847 5847 5847 5847 5847 5848 5848 5849 5849 5849 5850 5850 5850 5850 5851 5851 5851 5851 5851 5851 5852 5852 5852 5852 5852 5852 5853 5853 5853 5854 5854 5855 5855 5856 5856 5857 5857 5858 5858
5841 5842 5843 5843 5843 5844 5844 5845 5845 5845 5846 5846 5846 5846 5846 5847 5847 5847 5847 5848 5848 5849 5849 5849 5849 5849 5850 5850 5850 5850 5850 5850 5851 5851 5851 5851 5851 5851 5852 5853 5853 5853 5854 5854 5855 5855 5856 5856 5856
5841 5841 5842 5842 5842 5843 5843 5844 5844 5844 5844 5845 5845 5845 5845 5846 5846 5846 5846 5847 5847 5847 5847 5848 5848 5848 5848 5849 5849 5849 5849 5849 5850 5850 5850 5850 5850 5850 5850 5851 5851 5852 5852 5852 5853 5853 5854 5854 5854
5840 5840 5840 5841 5841 5842 5842 5842 5843 5843 5844 5844 5844 5844 5844 5845 5845 5845 5845 5845 5845 5846 5846 5846 5847 5847 5847 5847 5848 5848 5848 5848 5848 5848 5848 5848 5848 5848 5849 5849 5849 5849 5850 5850 5851 5851 5852 5852 5852
5839 5840 5839 5840 5840 5840 5841 5841 5841 5842 5842 5843 5843 5843 5844 5844 5844 5844 5844 5844 5844 5845 5845 5845 5846 5846 5846 5846 5846 5846 5847 5847 5847 5847 5846 5846 5846 5846 5846 5846 5847 5847 5848 5848 5848 5849 5849 5849 5850
5838 5839 5838 5839 5839 5839 5840 5840 5841 5841 5841 5842 5842 5842 5843 5843 5843 5843 5843 5843 5843 5843 5844 5844 5844 5845 5845 5845 5845 5846 5846 5846 5846 5846 5845 5844 5844 5843 5843 5843 5844 5845 5846 5846 5846 5846 5846 5847 5847
5837 5837 5837 5838 5838 5838 5838 5839 5840 5840 5840 5841 5841 5841 5841 5841 5842 5842 5842 5842 5842 5842 5843 5843 5843 5844 5844 5844 5844 5844 5844 5844 5844 5844 5843 5843 5842 5841 5840 5841 5842 5843 5843 5844 5844 5844 5844 5844 5845
5836 5836 5836 5836 5837 5837 5838 5838 5839 5840 5840 5840 5840 5840 5840 5841 5841 5841 5841 5841 5841 5841 5842 5842 5842 5842 5843 5843 5843 5843 5843 5843 5843 5843 5842 5842 5841 5840 5839 5839 5840 5841 5841 5842 5842 5841 5841 5842 5842
5835 5835 5835 5835 5836 5836 5837 5838 5838 5839 5839 5839 5839 5839 5839 5839 5840 5840 5840 5840 5840 5840 5840 5840 5841 5841 5841 5842 5842 5842 5842 5842 5842 5841 5841 5840 5840 5839 5839 5839 5839 5839 5840 5840 5840 5840 5840 5840 5840
5834 5834 5834 5835 5835 5836 5836 5837 5837 5838 5838 5838 5838 5838 5838 5838 5838 5838 5838 5838 5839 5839 5839 5839 5839 5839 5840 5840 5840 5840 5840 5840 5840 5840 5839 5839 5839 5838 5838 5838 5838 5838 5838 5838 5838 5838 5838 5838 5838
5833 5833 5833 5834 5834 5835 5836 5836 5836 5836 5837 5837 5837 5837 5837 5837 5837 5837 5837 5837 5837 5837 5837 5837 5837 5838 5838 5838 5839 5839 5839 5839 5839 5838 5838 5838 5838 5837 5837 5837 5837 5837 5836 5836 5836 5836 5836 5835 5835
5831 5832 5833 5833 5833 5833 5835 5835 5835 5835 5835 5836 5836 5836 5835 5835 5835 5835 5835 5835 5835 5835 5835 5835 5835 5836 5836 5836 5837 5837 5837 5837 5837 5837 5837 5837 5836 5836 5836 5836 5835 5835 5835 5834 5834 5834 5833 5833 5832
5830 5831 5831 5832 5832 5832 5835 5835 5834 5834 5834 5834 5834 5834 5834 5834 5834 5833 5833 5833 5833 5833 5833 5834 5834 5834 5834 5835 5835 5835 5835 5835 5835 5835 5835 5835 5835 5834 5834 5834 5834 5833 5833 5833 5832 5832 5831 5831 5830
5829 5830 5830 5831 5830 5831 5832 5832 5832 5832 5832 5832 5832 5832 5832 5832 5832 5832 5831 5831 5831 5831 5831 5832 5832 5832 5832 5833 5833 5833 5833 5833 5833 5833 5833 5833 5833 5833 5832 5832 5832 5831 5831 5831 5830 5830 5829 5828 5828
5828 5828 5828 5829 5829 5829 5830 5830 5830 5830 5830 5830 5830 5830 5830 5830 5830 5830 5830 5829 5829 5829 5829 5830 5830 5830 5830 5831 5831 5831 5831 5831 5831 5831 5831 5831 5831 5831 5830 5830 5830 5829 5829 5828 5828 5827 5827 5826 5825
5826 5826 5827 5827 5827 5827 5828 5828 5828 5828 5828 5829 5829 5828 5828 5828 5828 5827 5827 5827 5827 5827 5827 5827 5828 5828 5828 5828 5829 5829 5829 5829 5829 5829 5829 5829 5829 5829 5828 5828 5827 5827 5826 5826 5825 5825 5824 5823 5822
5824 5824 5825 5825 5825 5825 5826 5826 5826 5826 5826 5826 5826 5826 5826 5826 5826 5825 5825 5825 5825 5824 5824 5824 5825 5825 5826 5826 5826 5826 5827 5827 5827 5827 5827 5827 5826 5826 5826 5825 5825 5824 5824 5823 5822 5821 5821 5820 5819
5822 5823 5823 5823 5823 5823 5823 5824 5824 5824 5824 5824 5824 5824 5823 5823 5823 5823 5823 5822 5822 5822 5822 5822 5823 5823 5823 5823 5824 5824 5824 5824 5824 5824 5824 5824 5824 5823 5823 5822 5822 5821 5820 5819 5819 5818 5817 5816 5816
5820 5820 5820 5820 5820 5820 5821 5821 5822 5822 5821 5821 5821 5821 5821 5821 5820 5820 5820 5820 5819 5819 5819 5820 5820 5820 5820 5821 5821 5821 5821 5821 5821 5821 5821 5821 5821 5820 5820 5819 5818 5818 5817 5816 5815 5814 5814 5813 5812
5817 5817 5817 5817 5817 5818 5818 5818 5819 5818 5818 5819 5819 5819 5818 5818 5818 5817 5817 5817 5817 5817 5817 5817 5817 5817 5817 5817 5818 5818 5818 5818 5818 5818 5818 5818 5817 5817 5816 5816 5815 5814 5813 5812 5811 5811 5810 5809 5809
5813 5814 5814 5814 5814 5815 5815 5815 5816 5815 5815 5815 5815 5815 5815 5815 5815 5814 5814 5813 5813 5814 5814 5814 5813 5814 5814 5814 5815 5815 5815 5815 5815 5815 5815 5814 5814 5813 5813 5812 5811 5810 5809 5808 5808 5807 5806 5806 5805
5810 5811 5811 5810 5810 5812 5812 5811 5813 5812 5811 5811 5811 5811 5811 5811 5811 5811 5810 5810 5810 5810 5810 5810 5810 5811 5811 5811 5811 5811 5811 5811 5812 5811 5811 5811 5810 5810 5809 5808 5807 5806 5806 5805 5804 5803 5802 5802 5801
5807 5808 5808 5808 5808 5808 5808 5807 5809 5808 5808 5807 5807 5806 5806 5806 5806 5806 5806 5806 5806 5806 5806 5807 5807 5807 5807 5807 5807 5807 5808 5808 5808 5808 5807 5807 5806 5806 5805 5804 5803 5802 5802 5801 5800 5799 5798 5798 5797
5803 5803 5804 5804 5803 5803 5803 5804 5804 5804 5803 5803 5803 5802 5802 5802 5802 5802 5802 5802 5802 5802 5802 5803 5803 5803 5803 5803 5803 5803 5803 5803 5803 5803 5803 5803 5802 5802 5801 5800 5799 5798 5797 5797 5796 5795 5794 5794 5793
5799 5800 5800 5799 5798 5798 5799 5800 5800 5800 5799 5799 5799 5798 5797 5797 5797 5797 5797 5797 5797 5798 5798 5798 5799 5799 5799 5799 5799 5799 5799 5799 5799 5799 5799 5798 5798 5797 5796 5796 5795 5794 5793 5792 5791 5791 5790 5789 5789
5795 5795 5794 5794 5794 5794 5794 5798 5796 5796 5795 5794 5794 5793 5793 5793 5792 5792 5792 5792 5792 5793 5794 5794 5794 5795 5795 5795 5795 5794 5794 5794 5794 5794 5793 5793 5793 5792 5791 5791 5790 5789 5789 5788 5787 5786 5785 5785 5784
5790 5790 5790 5791 5790 5789 5789 5794 5792 5791 5790 5789 5789 5788 5788 5788 5787 5787 5787 5787 5787 5788 5789 5789 5789 5789 5790 5790 5790 5789 5789 5789 5788 5788 5788 5788 5787 5787 5787 5786 5785 5784 5784 5783 5782 5781 5780 5779 5779